Regional Weather Roundup
Issued by NWS

Home | Current Version | Previous Version | Text Only | Print | Product List | Glossary Off
Versions: 1 2 3 4 5 6 7 8 9 10 11 12 13 14 15 16 17 18 19 20 21 22 23 24 25 26 27 28

000
ASUS45 KCYS 270110
RWRWY

WYOMING REGIONAL WEATHER ROUNDUP
NATIONAL WEATHER SERVICE CHEYENNE WY
700 PM MDT THU MAY 26 2016

NOTE:  "FAIR" INDICATES FEW OR NO CLOUDS BELOW 12,000 FEET
WITH NO SIGNIFICANT WEATHER AND/OR OBSTRUCTIONS TO VISIBILITY.

WYZ001-270200-
YELLOWSTONE NATIONAL PARK

CITY           SKY/WX    TMP DP  RH WIND       PRES   REMARKS
LK YELLOWSTONE   N/A     38  36  92 CALM      30.11R
W YELLOWSTONE  NOT AVBL

$$
WYZ002>013-054>058-071-098>099-270200-
NORTHERN WYOMING

CITY           SKY/WX    TMP DP  RH WIND       PRES   REMARKS
JACKSON        MOSUNNY   55  34  44 W9        29.98R
CODY           FAIR      55  39  54 S3        29.95S
GREYBULL       FAIR      63  37  38 NW6       29.91S
WORLAND        FAIR      61  40  45 N6        29.92S
SHERIDAN       FAIR      60  45  57 N9        29.90S
BUFFALO        FAIR      57  42  57 N18G25    29.92F
GILLETTE       FAIR      61  40  45 NW10      29.90R
HULETT         CLOUDY    61  32  33 W6        29.88S
NEWCASTLE      FAIR      66  30  26 NW12G17   29.87S

$$
WYZ014>020-022>026-101>103-270200-
CENTRAL WYOMING

CITY           SKY/WX    TMP DP  RH WIND       PRES   REMARKS
BIG PINEY      FAIR      60  27  28 NW12      29.96F
PINEDALE       FAIR      55  28  35 N16G22    29.97S
DUBOIS         FAIR      52  28  40 NW21G28   29.98R
LANDER         PTSUNNY   57  38  48 N26G33    29.89R
RIVERTON       FAIR      58  37  45 N25G31    29.91R
CASPER         CLOUDY    59  35  40 NE12      29.90S
DOUGLAS          N/A    N/A N/A N/A MISG      29.90S

$$
WYZ021-027>030-104>119-270200-
SOUTHERN WYOMING

CITY           SKY/WX    TMP DP  RH WIND       PRES   REMARKS
EVANSTON       PTSUNNY   51  36  56 SW16G23   30.02S
KEMMERER         N/A     55  34  44 W21       30.00S
FORT BRIDGER   CLEAR     52  37  58 W13       30.03S
ROCK SPRINGS   FAIR      57  26  30 W15       29.94R
DIXON          MOCLDY    59  37  42 CALM      29.92S
RAWLINS        FAIR      54  34  46 NE14      29.94R
SARATOGA       FAIR      59  28  31 NW15      29.92R
LARAMIE        FAIR      47  37  68 SE3       29.95S
CHEYENNE       FAIR      48  42  80 NW7       29.92R
TORRINGTON     FAIR      59  42  53 NW15      29.86S
PINE BLUFFS    FAIR      50  46  87 NW8       29.90S

$$




USA.gov is the U.S. government's official web portal to all federal, state and local government web resources and services.